Weather History for Jordan, MT

Change the Weather History Date:

Monday, June 24, 2013

  Actual Average Record
Temperature  
Mean Temperature 68 °F 65 °F  
Max Temperature 86 °F 80 °F 104 °F (1936)
Min Temperature 50 °F 50 °F 35 °F (1905)
Degree Days  
Heating Degree Days 0 2  
Month to date heating degree days 95 113  
Since 1 June heating degree days 95 113  
Since 1 July heating degree days 7701 8234  
Cooling Degree Days 3 3  
Month to date cooling degree days 22 32  
Year to date cooling degree days 34 38  
Since 1 June cooling degree days 22 32  
Growing Degree Days 17 (Base 50)    
Moisture  
Dew Point 56 °F    
Average Humidity 68    
Maximum Humidity 96    
Minimum Humidity 40    
Precipitation  
Precipitation 0.00 in 0.08 in 0.98 in (1953)
Month to date precipitation 3.97 2.12  
Year to date precipitation 10.93 6.49  
Snow  
Snow 0.00 in - - ()
Month to date snowfall 0.0  
Since 1 June snowfall 0.0  
Since 1 July snowfall 0.0  
Snow Depth 0.00 in    
Sea Level Pressure  
Sea Level Pressure 29.63 in    
Wind  
Wind Speed 7 mph (East)    
Max Wind Speed 18 mph    
Max Gust Speed 23 mph    
T = Trace of Precipitation, MM = Missing Value Source: NWS Daily Summary

Daily Weather History Graph

Daily Weather History Graph

Search for Another Location

Airport:

Trip Planner

Search our weather history database for the weather conditions in past years. The results will help you decide how hot, cold, wet, or windy it might be!

Date:

Astronomy

Jun. 24, 2013 Rise Set
Actual Time 5:12 AM MDT 9:08 PM MDT
Civil Twilight 4:31 AM MDT 9:48 PM MDT
Nautical Twilight 3:36 AM MDT 10:44 PM MDT
Astronomical Twilight 2:10 AM MDT 12:10 AM MDT
Moon 10:02 PM MDT (6/24) 6:51 AM MDT (6/24)
Length of Visible Light 17h 16m
Length of Day
15h 56m
Full, 97% of the Moon is Illuminated
Jun 24
Full
Jun 29
Last Quarter
Jul 8
New
Jul 15
First Quarter
Jul 22
Full

Hourly Weather History & Observations

Time (MDT) Temp. Heat Index Dew Point Humidity Pressure Visibility Wind Dir Wind Speed Gust Speed Precip Events Conditions
12:48 AM 55.0 °F - 51.1 °F 86% 29.73 in - Calm Calm - N/A   Unknown
1:48 AM 54.0 °F - 51.1 °F 90% 29.73 in - East 4.6 mph - N/A   Unknown
2:48 AM 53.1 °F - 50.0 °F 89% 29.72 in - Calm Calm - N/A   Unknown
3:48 AM 52.0 °F - 50.0 °F 93% 29.70 in - Calm Calm - N/A   Unknown
4:48 AM 50.0 °F - 48.0 °F 93% 29.70 in - Calm Calm - N/A   Unknown
5:48 AM 51.1 °F - 48.9 °F 92% 29.70 in - Calm Calm - N/A   Unknown
6:48 AM 55.0 °F - 52.0 °F 89% 29.68 in - Calm Calm - N/A   Unknown
7:48 AM 62.1 °F - 52.0 °F 70% 29.66 in - East 6.9 mph - N/A   Unknown
8:48 AM 66.9 °F - 54.0 °F 63% 29.65 in - Calm Calm - N/A   Unknown
9:48 AM 72.0 °F - 57.0 °F 59% 29.66 in - East 5.8 mph - N/A   Unknown
10:48 AM 73.0 °F - 57.0 °F 57% 29.65 in - SE 4.6 mph - N/A   Unknown
11:48 AM 78.1 °F - 59.0 °F 52% 29.63 in - East 8.1 mph - N/A   Unknown
1:48 PM 82.0 °F 82.0 °F 57.9 °F 44% 29.60 in - East 12.7 mph 18.4 mph N/A   Unknown
2:48 PM 84.9 °F 84.8 °F 60.1 °F 43% 29.58 in - ESE 11.5 mph - N/A   Unknown
4:48 PM 84.9 °F 84.2 °F 57.9 °F 40% 29.56 in - SE 11.5 mph - N/A   Unknown
6:48 PM 81.0 °F 81.9 °F 62.1 °F 52% 29.55 in - SE 10.4 mph - N/A   Unknown
8:48 PM 75.0 °F - 66.0 °F 73% 29.55 in - East 6.9 mph - N/A   Unknown
9:48 PM 73.0 °F - 66.0 °F 79% 29.52 in - East 8.1 mph - N/A   Unknown
10:48 PM 72.0 °F - 64.0 °F 76% 29.51 in - East 6.9 mph - N/A   Unknown
11:48 PM 73.9 °F - 63.0 °F 68% 29.54 in - Calm Calm - N/A   Unknown